When you browse on this site, cookies collect data to enhance your experience and personalize the content and advertising you see.
Visit our Privacy Policy to learn more. By continuing to use the site, you agree to this use of cookies and data.
  • Em Portugal
  • Lista de países
  • Para 7 dias
  • Temperatura da água
  • Mapas de satélite
  • Mapa do tempo
  • Widgets de tempo
  • user-avatar
    Iniciar Sessão

    Previsão horária em Cumamoto

    Hoje, 22 Abril, Segunda-feira

    Tempo Temperatura Precipitação Vento Pressão Humidade
    00:00 +20°C° 0 mm 1 m/s 758 mmHg 59%
    01:00 +18°C° 0 mm 0 m/s 758 mmHg 60%
    02:00 +18°C° 0 mm 0 m/s 758 mmHg 61%
    03:00 +18°C° 0 mm 0 m/s 758 mmHg 60%
    04:00 +18°C° 0 mm 0 m/s 758 mmHg 60%
    05:00 +20°C° 0 mm 1 m/s 758 mmHg 60%
    06:00 +20°C° 0 mm 1 m/s 758 mmHg 60%
    07:00 +22°C° 0 mm 1 m/s 759 mmHg 55%
    08:00 +24°C° 0 mm 1 m/s 759 mmHg 50%
    09:00 +23°C° 0 mm 0 m/s 759 mmHg 48%
    10:00 +25°C° 0 mm 0 m/s 759 mmHg 42%
    11:00 +28°C° 0 mm 0 m/s 759 mmHg 36%
    12:00 +30°C° 0 mm 0 m/s 759 mmHg 31%
    13:00 +32°C° 0 mm 1 m/s 759 mmHg 30%
    14:00 +32°C° 0 mm 1 m/s 759 mmHg 29%
    15:00 +31°C° 0 mm 2 m/s 758 mmHg 32%
    16:00 +30°C° 0 mm 2 m/s 759 mmHg 35%
    17:00 +29°C° 0 mm 2 m/s 759 mmHg 38%
    18:00 +28°C° 0 mm 2 m/s 759 mmHg 41%
    19:00 +27°C° 0 mm 2 m/s 759 mmHg 47%
    20:00 +25°C° 0 mm 1 m/s 760 mmHg 52%
    21:00 +24°C° 0 mm 1 m/s 760 mmHg 57%
    22:00 +23°C° 0 mm 1 m/s 760 mmHg 59%
    23:00 +23°C° 0 mm 1 m/s 760 mmHg 62%

    Amanhã, 23 Abril, Terça-feira

    Tempo Temperatura Precipitação Vento Pressão Humidade
    00:00 +22°C° 0 mm 1 m/s 760 mmHg 65%
    01:00 +22°C° 0 mm 1 m/s 760 mmHg 66%
    02:00 +22°C° 0 mm 1 m/s 760 mmHg 68%
    03:00 +21°C° 0 mm 1 m/s 760 mmHg 69%
    04:00 +21°C° 0 mm 1 m/s 760 mmHg 69%
    05:00 +21°C° 0 mm 1 m/s 760 mmHg 69%
    06:00 +21°C° 0 mm 1 m/s 760 mmHg 69%
    07:00 +23°C° 0 mm 1 m/s 760 mmHg 63%
    08:00 +24°C° 0 mm 1 m/s 760 mmHg 57%
    09:00 +26°C° 0 mm 1 m/s 760 mmHg 51%
    10:00 +27°C° 0 mm 1 m/s 760 mmHg 48%
    11:00 +28°C° 0 mm 1 m/s 760 mmHg 45%
    12:00 +29°C° 0 mm 2 m/s 760 mmHg 42%
    13:00 +28°C° 0.1 mm 2 m/s 760 mmHg 46%
    14:00 +27°C° 0.1 mm 2 m/s 760 mmHg 49%
    15:00 +27°C° 0.1 mm 2 m/s 759 mmHg 53%
    16:00 +26°C° 0.3 mm 2 m/s 759 mmHg 57%
    17:00 +25°C° 0.3 mm 2 m/s 759 mmHg 62%
    18:00 +24°C° 0.3 mm 2 m/s 759 mmHg 66%
    19:00 +23°C° 0.4 mm 2 m/s 759 mmHg 69%
    20:00 +23°C° 0.4 mm 2 m/s 759 mmHg 71%
    21:00 +21°C° 0.4 mm 2 m/s 759 mmHg 74%
    22:00 +21°C° 0.2 mm 3 m/s 759 mmHg 74%
    23:00 +21°C° 0.2 mm 3 m/s 758 mmHg 74%

    Depois de amanhã, 24 Abril, Quarta-feira

    Tempo Temperatura Precipitação Vento Pressão Humidade
    00:00 +21°C° 0.2 mm 3 m/s 758 mmHg 75%
    01:00 +21°C° 0.2 mm 3 m/s 758 mmHg 75%
    02:00 +21°C° 0.2 mm 3 m/s 757 mmHg 74%
    03:00 +21°C° 0.2 mm 3 m/s 757 mmHg 74%
    04:00 +21°C° 0.4 mm 3 m/s 756 mmHg 75%
    05:00 +21°C° 0.4 mm 2 m/s 756 mmHg 76%
    06:00 +21°C° 0.4 mm 2 m/s 756 mmHg 77%
    07:00 +23°C° 0.4 mm 2 m/s 756 mmHg 74%
    08:00 +25°C° 0.4 mm 2 m/s 756 mmHg 72%
    09:00 +26°C° 0.4 mm 2 m/s 756 mmHg 69%
    10:00 +27°C° 0.6 mm 3 m/s 756 mmHg 67%
    11:00 +28°C° 0.6 mm 3 m/s 756 mmHg 65%
    12:00 +29°C° 0.6 mm 4 m/s 756 mmHg 63%
    13:00 +29°C° 0.9 mm 4 m/s 755 mmHg 66%
    14:00 +28°C° 0.9 mm 4 m/s 755 mmHg 68%
    15:00 +28°C° 0.9 mm 4 m/s 754 mmHg 71%
    16:00 +27°C° 0 mm 4 m/s 754 mmHg 73%
    17:00 +26°C° 0 mm 3 m/s 754 mmHg 75%
    18:00 +25°C° 0 mm 3 m/s 754 mmHg 77%
    19:00 +25°C° 0 mm 2 m/s 754 mmHg 80%
    20:00 +24°C° 0 mm 2 m/s 754 mmHg 82%
    21:00 +23°C° 0 mm 1 m/s 755 mmHg 84%
    22:00 +23°C° 0.1 mm 1 m/s 755 mmHg 85%
    23:00 +23°C° 0.1 mm 1 m/s 755 mmHg 86%

    25 Abril, Quinta-feira

    Tempo Temperatura Precipitação Vento Pressão Humidade
    00:00 +23°C° 0.1 mm 1 m/s 755 mmHg 87%
    01:00 +23°C° 0.3 mm 1 m/s 754 mmHg 88%
    02:00 +21°C° 0.3 mm 0 m/s 754 mmHg 89%
    03:00 +20°C° 0.3 mm 0 m/s 753 mmHg 90%
    04:00 +20°C° 0 mm 0 m/s 753 mmHg 90%
    05:00 +20°C° 0 mm 0 m/s 753 mmHg 90%
    06:00 +20°C° 0 mm 0 m/s 753 mmHg 90%
    07:00 +21°C° 0 mm 0 m/s 754 mmHg 84%
    08:00 +25°C° 0 mm 1 m/s 754 mmHg 77%
    09:00 +26°C° 0 mm 1 m/s 754 mmHg 71%
    10:00 +27°C° 0 mm 1 m/s 754 mmHg 66%
    11:00 +28°C° 0 mm 2 m/s 754 mmHg 61%
    12:00 +29°C° 0 mm 3 m/s 754 mmHg 56%
    13:00 +29°C° 0 mm 3 m/s 753 mmHg 55%
    14:00 +29°C° 0 mm 3 m/s 753 mmHg 54%
    15:00 +28°C° 0 mm 4 m/s 753 mmHg 54%
    16:00 +27°C° 0 mm 3 m/s 753 mmHg 59%
    17:00 +26°C° 0 mm 3 m/s 753 mmHg 64%
    18:00 +25°C° 0 mm 3 m/s 753 mmHg 68%
    19:00 +24°C° 0 mm 2 m/s 754 mmHg 71%
    20:00 +23°C° 0 mm 2 m/s 754 mmHg 74%
    21:00 +22°C° 0 mm 1 m/s 755 mmHg 77%
    22:00 +22°C° 0 mm 1 m/s 755 mmHg 78%
    23:00 +21°C° 0 mm 1 m/s 755 mmHg 79%

    26 Abril, Sexta-feira

    Tempo Temperatura Precipitação Vento Pressão Humidade
    00:00 +21°C° 0 mm 1 m/s 755 mmHg 79%
    01:00 +20°C° 0 mm 1 m/s 754 mmHg 80%
    02:00 +20°C° 0 mm 1 m/s 754 mmHg 80%
    03:00 +19°C° 0 mm 1 m/s 754 mmHg 81%
    04:00 +19°C° 0 mm 1 m/s 755 mmHg 81%
    05:00 +19°C° 0 mm 1 m/s 755 mmHg 80%
    06:00 +19°C° 0 mm 1 m/s 755 mmHg 80%
    07:00 +20°C° 0 mm 1 m/s 755 mmHg 77%
    08:00 +19°C° 0 mm 2 m/s 756 mmHg 73%
    09:00 +20°C° 0 mm 2 m/s 756 mmHg 70%
    10:00 +21°C° 0 mm 2 m/s 756 mmHg 63%
    11:00 +23°C° 0 mm 2 m/s 756 mmHg 56%
    12:00 +24°C° 0 mm 2 m/s 756 mmHg 49%
    13:00 +24°C° 0 mm 2 m/s 756 mmHg 49%
    14:00 +24°C° 0 mm 3 m/s 756 mmHg 49%
    15:00 +24°C° 0 mm 3 m/s 756 mmHg 49%
    16:00 +24°C° 0 mm 2 m/s 757 mmHg 51%
    17:00 +23°C° 0 mm 2 m/s 757 mmHg 53%
    18:00 +23°C° 0 mm 2 m/s 757 mmHg 55%
    19:00 +20°C° 0 mm 2 m/s 757 mmHg 59%
    20:00 +19°C° 0 mm 2 m/s 758 mmHg 62%
    21:00 +18°C° 0 mm 2 m/s 759 mmHg 66%
    22:00 +18°C° 0.1 mm 3 m/s 759 mmHg 68%
    23:00 +17°C° 0.1 mm 3 m/s 759 mmHg 70%

    27 Abril, Sábado

    Tempo Temperatura Precipitação Vento Pressão Humidade
    00:00 +16°C° 0.1 mm 3 m/s 759 mmHg 71%
    01:00 +16°C° 0 mm 3 m/s 760 mmHg 71%
    02:00 +14°C° 0 mm 3 m/s 760 mmHg 71%
    03:00 +13°C° 0 mm 3 m/s 760 mmHg 71%
    04:00 +13°C° 0 mm 3 m/s 760 mmHg 71%
    05:00 +12°C° 0 mm 3 m/s 761 mmHg 71%
    06:00 +12°C° 0 mm 3 m/s 761 mmHg 71%
    07:00 +13°C° 0 mm 3 m/s 762 mmHg 62%
    08:00 +16°C° 0 mm 3 m/s 762 mmHg 54%
    09:00 +18°C° 0 mm 3 m/s 763 mmHg 45%
    10:00 +19°C° 0 mm 3 m/s 763 mmHg 39%
    11:00 +21°C° 0 mm 3 m/s 763 mmHg 33%
    12:00 +22°C° 0 mm 3 m/s 762 mmHg 27%
    13:00 +24°C° 0 mm 3 m/s 762 mmHg 26%
    14:00 +24°C° 0 mm 3 m/s 762 mmHg 24%
    15:00 +25°C° 0 mm 3 m/s 762 mmHg 23%
    16:00 +24°C° 0 mm 3 m/s 762 mmHg 26%
    17:00 +22°C° 0 mm 3 m/s 762 mmHg 30%
    18:00 +21°C° 0 mm 3 m/s 763 mmHg 33%
    19:00 +19°C° 0 mm 3 m/s 763 mmHg 38%
    20:00 +18°C° 0 mm 3 m/s 764 mmHg 42%
    21:00 +17°C° 0 mm 2 m/s 764 mmHg 47%
    22:00 +16°C° 0 mm 2 m/s 764 mmHg 49%
    23:00 +15°C° 0 mm 2 m/s 764 mmHg 52%
    Mostrar mais